Regional Weather Roundup
Issued by NWS Portland, ME

Home | Current Version | Previous Version | Text Only | Print | Product List | Glossary On
Versions: 1 2 3 4 5 6 7 8 9 10 11 12 13 14 15 16 17 18 19 20 21 22 23 24 25 26 27 28 29 30 31 32 33 34 35 36 37 38 39 40 41 42 43 44 45 46 47 48 49 50
081
ASUS41 KGYX 130510
RWRGYX
WEATHER ROUNDUP FOR MAINE AND NEW HAMPSHIRE
NATIONAL WEATHER SERVICE GRAY ME
1200 AM EST SAT FEB 13 2016

MEZ002-005-006-010-012-015-018-020-021-024-026-027-029-130600-
MAINE

CITY           SKY/WX    TMP DP  RH WIND       PRES   REMARKS
PORTLAND       PTCLDY    13   2  61 W5        29.90F
SANFORD        CLEAR      3  -2  78 CALM      29.88S
BAR HARBOR     CLOUDY    10   7  85 N6        29.93F
WISCASSET      PTCLDY     6   3  87 CALM      29.92S
ROCKLAND       FLURRIES  16  14  92 CALM      29.92S
FRYEBURG       CLEAR     -4  -8  83 CALM      29.86F
LEWISTONAUBURN CLEAR      1  -8  66 CALM      29.86F
AUGUSTA        CLEAR      9   0  67 CALM      29.88F
WATERVILLE     CLEAR      0  -6  76 N3        29.85F
BANGOR         PTCLDY     1  -4  79 CALM      29.92S
GREENVILLE       N/A      3  -7  63 S6        29.75S
MILLINOCKET    CLEAR     -8 -14  74 CALM      29.91F
HOULTON        CLEAR    -16 -22  74 CALM      29.90F
PRESQUE ISLE   CLEAR    -18 -24  74 CALM      29.92S
FRENCHVILLE    CLOUDY    -3 -10  72 E8        29.84F
CARIBOU        CLEAR    -10 -15  78 CALM      29.89S
$$

NHZ002-005-008-009-011-012-014-130600-
NEW HAMPSHIRE

CITY           SKY/WX    TMP DP  RH WIND       PRES   REMARKS
PORTSMOUTH     PTCLDY    14   4  65 S2        29.88F
ROCHESTER      CLEAR     10   1  67 NW3       29.87F
NASHUA         CLEAR      7   0  72 CALM      29.89F
MANCHESTER     CLEAR     15   3  59 CALM      29.87F
CONCORD        CLEAR      7   0  73 CALM      29.87F
LACONIA        CLEAR      7  -2  66 CALM      29.86S
PLYMOUTH       MOCLDY     0  -3  87 CALM      29.86S
BERLIN         CLEAR     -3  -9  75 CALM      29.78S
WHITEFIELD     PTCLDY     0  -5  79 CALM      29.78S
JAFFREY        CLEAR      2  -2  83 S3        29.81F
KEENE          CLEAR      7   0  72 CALM      29.86S
LEBANON        MOCLDY     8   1  73 CALM      29.82F
MT WASHINGTON  PTCLDY    -8 -13  77 SW22G28     N/A  WCI -33
$$

VTZ005-007-008-130600-
VERMONT

CITY           SKY/WX    TMP DP  RH WIND       PRES   REMARKS
ST JOHNSBURY     N/A      8   0  69 MISG      29.79F
MONTPELIER     CLOUDY    11   0  61 S6        29.79F
BURLINGTON     MOCLDY    20   3  48 S14G21    29.78F WCI   7
$$

MAZ007-012-024-CTZ003-RIZ002-NYZ038-NYZ072-130600-
SOUTHERN NEW ENGLAND AND NY

CITY           SKY/WX    TMP DP  RH WIND       PRES   REMARKS
BOSTON         CLOUDY    21   9  59 SW9       29.91F
WORCESTER      PTCLDY    11   5  77 SW7       29.82F
NANTUCKET      LGT SNOW  24  21  88 N5        29.90F VSB 1
PROVIDENCE     CLOUDY    21   9  59 W6        29.91F
HARTFORD       CLOUDY    17   8  67 SW5       29.88F
ALBANY         CLOUDY    20   4  50 S7        29.86F
NEW YORK CITY  CLOUDY    24   8  50 W16       29.93F WCI  11
$$

ANZ081-ANZ082-ANZ150-NHZ014-MEZ023>029-130600-
COASTAL MARINE OBSERVATIONS

STATION/POSITION TIME  TEMP    WIND        PRES    WAVE
                       AIR SEA DIR/SP/G            HT/PER
                 (UTC) (F)     (DEG/KT/KT) (MB)    (FT/S)
MOUNT DESERT ROC 0500   23     160/  6/  8 1013.5F
MATINICUS ROCK   0500          160/ 12/ 13 1012.5F
ISLE OF SHOALS   0400   23     240/ 11/ 13 1012.1F
JEFFREYS LEDGE   0404      43                N/A     2/ 4
CASHES LEDGE BUO 0450   25 42  190/ 10/ 16 1012.3F   2/11
GEORGES BANK BUO 0450   29 44              1012.6F   6/ 9
$$

.............KEY..............
   WCI - WIND CHILL
   TC  - TEMPERATURE IN CELSIUS
   VSB - VISIBILITY IN MILES
   HX  - HEAT INDEX
   FAIR- INDICATES FEW OR NO CLOUDS BELOW 12,000 FT, WITH NO
         SIGNIFICANT WEATHER AND/OR OBSTRUCTIONS TO VISIBILITY.






USA.gov is the U.S. government's official web portal to all federal, state and local government web resources and services.